Regional Weather Roundup
Issued by NWS Northern Indiana

Home | Current Version | Previous Version | Text Only | Print | Product List | Glossary Off
Versions: 1 2 3 4 5 6 7 8 9 10 11 12 13 14 15 16 17 18 19 20 21 22 23 24 25 26 27 28 29 30 31 32 33 34 35 36 37 38 39 40 41 42 43 44 45 46 47 48 49 50

000
ASUS43 KIWX 040600
RWRIWX

KIWX WEATHER ROUNDUP
NATIONAL WEATHER SERVICE NORTHERN INDIANA
100 AM EST WED MAR 04 2015

NOTE: "FAIR" INDICATES FEW OR NO CLOUDS BELOW 12,000 FEET WITH NO
SIGNIFICANT WEATHER AND/OR OBSTRUCTIONS TO VISIBILITY.

* THESE STATIONS ARE NOT UNDER NWS QUALITY CONTROL. THEY ALSO MAY NOT
  REPORT WEATHER SUCH AS PRECIPITATION OR FOG.

INZ001>027-040700-
NORTHERN INDIANA

CITY           SKY/WX    TMP DP  RH WIND       PRES   REMARKS
SOUTH BEND     CLOUDY    32  32 100 NW15      29.85R WCI  22
6HR MIN TEMP:  32; 6HR MAX TEMP:  35;

GOSHEN         CLOUDY    33  27  78 NW10      29.83R WCI  25
6HR MIN TEMP:  33; 6HR MAX TEMP:  35;

ANGOLA*        MOCLDY    32  27  80 NW9       29.80R WCI  24
FORT WAYNE     CLOUDY    34  30  85 W13       29.84S WCI  25
6HR MIN TEMP:  34; 6HR MAX TEMP:  36;

PERU/GRISSOM   CLOUDY    33  31  90 W9        29.84F WCI  26
6HR MIN TEMP:  33; 6HR MAX TEMP:  35;


$$
INZ028>050-040700-
CENTRAL INDIANA

CITY           SKY/WX    TMP DP  RH WIND       PRES   REMARKS
LAFAYETTE      CLOUDY    33  30  88 W7        29.89S WCI  27
6HR MIN TEMP:  33; 6HR MAX TEMP:  36;

KOKOMO*          N/A    N/A N/A N/A MISG        N/A
6HR MIN TEMP:  34; 6HR MAX TEMP:  36;

MUNCIE*        CLOUDY    34  32  92 W8        29.85F WCI  27
6HR MIN TEMP:  34; 6HR MAX TEMP:  38; 6HR PCP:  0.01;

INDIANAPOLIS   LGTSLEET  34  32  92 W7        29.87S FOG     WCI  28
6HR MIN TEMP:  34; 6HR MAX TEMP:  38; 6HR PCP:  0.11;


$$
MIZ043>046-050>051-056>058-064>065-071>073-077>080-040700-
SOUTHWEST LOWER MICHIGAN

CITY           SKY/WX    TMP DP  RH WIND       PRES   REMARKS
BATTLE CREEK   CLOUDY    31  24  75 NW10      29.80S WCI  22
6HR MIN TEMP:  31; 6HR MAX TEMP:  35;

BENTON HARBOR  CLOUDY    30  24  78 W7        29.84S WCI  23
6HR MIN TEMP:  30; 6HR MAX TEMP:  33;

COLDWATER*     CLOUDY    32  24  73 NW9       29.79R WCI  24
6HR MIN TEMP:  32; 6HR MAX TEMP:  34;

HILLSDALE*     CLOUDY    33  29  85 NW13G18   29.78R WCI  23
6HR MIN TEMP:  33; 6HR MAX TEMP:  35;

HOLLAND        CLOUDY    31  23  72 W7        29.81S WCI  24
6HR MIN TEMP:  31; 6HR MAX TEMP:  34;

GRAND RAPIDS   CLOUDY    29  22  75 W10       29.79S WCI  20
6HR MIN TEMP:  29; 6HR MAX TEMP:  33;

KALAMAZOO        N/A    N/A N/A N/A MISG      29.81S
STURGIS*       CLOUDY    32  27  80 NW12G20   29.81R WCI  23
THREE RIVERS*  CLOUDY    32  25  74 NW9       29.82R WCI  24
6HR MIN TEMP:  32; 6HR MAX TEMP:  35;


$$
OHZ001>008-015>018-024>025-040700-
NORTHWEST OHIO

CITY           SKY/WX    TMP DP  RH WIND       PRES   REMARKS
DEFIANCE       CLOUDY    36  29  75 W7        29.83R
6HR MIN TEMP:  36; 6HR MAX TEMP:  38;

FINDLAY        CLOUDY    35  31  85 W13       29.82S WCI  26
6HR MIN TEMP:  35; 6HR MAX TEMP:  39;

TOLEDO EXPRESS CLOUDY    34  28  79 W13       29.81R WCI  25
6HR MIN TEMP:  33; 6HR MAX TEMP:  36;

TOLEDO METCALF CLOUDY    35  29  78 W12       29.82R WCI  27
6HR MIN TEMP:  35; 6HR MAX TEMP:  37;

LIMA           CLOUDY    36  31  82 W15       29.83R
6HR MIN TEMP:  36; 6HR MAX TEMP:  40;


$$
AND FOR LAKE MICHIGAN COASTAL AND OPEN LAKE BUOY OBSERVATIONS

STATION/POSITION TEMP    WIND        PRES    VSBY  WAVE
                 AIR SEA DIR/SP/G                  HT/PER
                 (F)     (DEG/KT/KT) (MB)    (MI)  (FT/S)
CALUMET HARBOR    32     260/  6/ 11 1010.1R
MICHIGAN CITY     32     270/ 10/ 12   N/A
SAINT JOSEPH      32     280/  8/ 14 1011.5R

$$
&&



USA.gov is the U.S. government's official web portal to all federal, state and local government web resources and services.